AZA728 LIMC-LGAV

Flight info

Callsign AZA728
Flight time 2h 0m
Altitude 37000
Route ROBAS DCT IPDAB DCT LUMAV DCT NIKOL DCT KOFER DCT PINDO DCT SIGFO UM749 ROPOX
Aircraft MD82/M-SDFGIRWY/S

Departure

Time 2026-05-04 13:22
Airport Milan Malpensa International Airport (LIMC)

Arrival

Time 2026-05-04 15:23
Airport Athens Eleftherios Venizelos International Airport (LGAV)
Time Latitude Longitude Altitude Speed Heading
2026-05-04 13:01 45.62237 8.71850 754 ft 0 kts 169°
2026-05-04 13:04 45.62237 8.71849 753 ft 0 kts 169°
2026-05-04 13:10 45.62243 8.71848 752 ft 3 kts 169°
2026-05-04 13:11 45.62265 8.71841 750 ft 3 kts 168°
2026-05-04 13:11 45.62287 8.71835 750 ft 3 kts 168°
2026-05-04 13:11 45.62305 8.71828 750 ft 3 kts 151°
2026-05-04 13:11 45.62317 8.71812 749 ft 3 kts 110°
2026-05-04 13:12 45.62320 8.71783 749 ft 3 kts 85°
2026-05-04 13:12 45.62318 8.71759 751 ft 1 kts 79°
2026-05-04 13:12 45.62317 8.71754 750 ft 0 kts 79°
2026-05-04 13:14 45.62317 8.71756 751 ft 1 kts 79°
2026-05-04 13:14 45.62320 8.71778 750 ft 6 kts 79°
2026-05-04 13:14 45.62331 8.71858 753 ft 11 kts 79°
2026-05-04 13:14 45.62346 8.71974 753 ft 14 kts 79°
2026-05-04 13:15 45.62365 8.72114 752 ft 15 kts 79°
2026-05-04 13:15 45.62322 8.72227 751 ft 15 kts 159°
2026-05-04 13:15 45.62224 8.72259 749 ft 14 kts 169°
2026-05-04 13:15 45.62126 8.72285 751 ft 14 kts 169°
2026-05-04 13:16 45.62028 8.72312 750 ft 14 kts 169°
2026-05-04 13:16 45.61930 8.72340 750 ft 14 kts 169°
2026-05-04 13:16 45.61832 8.72367 752 ft 14 kts 169°
2026-05-04 13:16 45.61732 8.72395 751 ft 15 kts 169°
2026-05-04 13:17 45.61631 8.72422 752 ft 15 kts 169°
2026-05-04 13:17 45.61528 8.72451 752 ft 15 kts 168°
2026-05-04 13:17 45.61421 8.72481 749 ft 16 kts 169°
2026-05-04 13:17 45.61313 8.72511 749 ft 16 kts 169°
2026-05-04 13:18 45.61204 8.72540 753 ft 16 kts 169°
2026-05-04 13:18 45.61099 8.72583 749 ft 16 kts 143°
2026-05-04 13:18 45.61086 8.72733 747 ft 18 kts 77°
2026-05-04 13:18 45.61110 8.72907 750 ft 18 kts 79°
2026-05-04 13:19 45.61146 8.73058 753 ft 15 kts 50°
2026-05-04 13:19 45.61231 8.73144 752 ft 15 kts 34°
2026-05-04 13:19 45.61323 8.73232 751 ft 16 kts 33°
2026-05-04 13:19 45.61427 8.73258 750 ft 16 kts 352°
2026-05-04 13:20 45.61539 8.73227 751 ft 17 kts 348°
2026-05-04 13:20 45.61625 8.73265 754 ft 13 kts 77°
2026-05-04 13:20 45.61634 8.73393 750 ft 13 kts 98°
2026-05-04 13:20 45.61597 8.73517 750 ft 14 kts 114°
2026-05-04 13:21 45.61592 8.73667 744 ft 18 kts 71°
2026-05-04 13:21 45.61670 8.73722 744 ft 14 kts 351°
2026-05-04 13:21 45.61812 8.73686 743 ft 37 kts 349°
2026-05-04 13:21 45.62269 8.73554 746 ft 101 kts 348°
2026-05-04 13:22 45.63170 8.73302 745 ft 160 kts 347°
2026-05-04 13:22 45.64369 8.72927 1131 ft 181 kts 347°
2026-05-04 13:22 45.65643 8.72809 1934 ft 188 kts
2026-05-04 13:22 45.66860 8.73269 2564 ft 195 kts 28°
2026-05-04 13:23 45.67960 8.74329 3479 ft 189 kts 36°
2026-05-04 13:23 45.69027 8.75466 4091 ft 195 kts 37°
2026-05-04 13:23 45.70076 8.76840 4525 ft 219 kts 56°
2026-05-04 13:23 45.70767 8.78932 4785 ft 245 kts 79°
2026-05-04 13:24 45.70896 8.81454 5119 ft 264 kts 100°
2026-05-04 13:24 45.70220 8.83945 5463 ft 278 kts 129°
2026-05-04 13:24 45.68844 8.85985 5828 ft 293 kts 136°
2026-05-04 13:25 45.66126 8.90742 6690 ft 319 kts 128°
2026-05-04 13:25 45.64773 8.93237 7292 ft 324 kts 129°
2026-05-04 13:25 45.63372 8.95753 8045 ft 324 kts 130°
2026-05-04 13:25 45.61968 8.98288 8748 ft 327 kts 130°
2026-05-04 13:26 45.60553 9.00848 9518 ft 328 kts 130°
2026-05-04 13:26 45.59123 9.03415 10167 ft 331 kts 131°
2026-05-04 13:26 45.57667 9.05997 10713 ft 336 kts 131°
2026-05-04 13:26 45.56183 9.08611 11229 ft 342 kts 132°
2026-05-04 13:27 45.54668 9.11260 11786 ft 347 kts 131°
2026-05-04 13:27 45.53138 9.13949 12326 ft 352 kts 131°
2026-05-04 13:27 45.51624 9.16607 12825 ft 356 kts 131°
2026-05-04 13:27 45.50050 9.19371 13357 ft 361 kts 131°
2026-05-04 13:28 45.48456 9.22169 13873 ft 366 kts 131°
2026-05-04 13:28 45.46845 9.24997 14383 ft 369 kts 131°
2026-05-04 13:28 45.45224 9.27847 14919 ft 371 kts 131°
2026-05-04 13:28 45.43618 9.30668 15496 ft 373 kts 131°
2026-05-04 13:29 45.41974 9.33543 15999 ft 376 kts 132°
2026-05-04 13:29 45.40304 9.36418 16530 ft 378 kts 132°
2026-05-04 13:29 45.38613 9.39319 17096 ft 381 kts 132°
2026-05-04 13:29 45.36916 9.42234 17583 ft 385 kts 132°
2026-05-04 13:30 45.35205 9.45187 18049 ft 388 kts 132°
2026-05-04 13:30 45.33489 9.48162 18540 ft 391 kts 132°
2026-05-04 13:30 45.31760 9.51165 18962 ft 394 kts 132°
2026-05-04 13:30 45.30016 9.54193 19374 ft 397 kts 132°
2026-05-04 13:31 45.28266 9.57233 19819 ft 399 kts 132°
2026-05-04 13:31 45.26521 9.60260 20253 ft 402 kts 132°
2026-05-04 13:31 45.24747 9.63338 20689 ft 404 kts 132°
2026-05-04 13:31 45.22953 9.66446 21096 ft 408 kts 132°
2026-05-04 13:32 45.21147 9.69572 21461 ft 412 kts 132°
2026-05-04 13:32 45.19434 9.72861 21850 ft 418 kts 120°
2026-05-04 13:32 45.18341 9.76705 22328 ft 423 kts 109°
2026-05-04 13:32 45.17534 9.80729 22770 ft 426 kts 107°
2026-05-04 13:33 45.16779 9.84749 23146 ft 430 kts 107°
2026-05-04 13:33 45.16010 9.88862 23547 ft 432 kts 107°
2026-05-04 13:33 45.15230 9.92988 23935 ft 434 kts 107°
2026-05-04 13:33 45.14429 9.97116 24335 ft 435 kts 107°
2026-05-04 13:34 45.13604 10.01245 24715 ft 436 kts 108°
2026-05-04 13:34 45.12759 10.05379 25088 ft 438 kts 108°
2026-05-04 13:34 45.11902 10.09526 25467 ft 439 kts 108°
2026-05-04 13:34 45.11052 10.13633 25838 ft 440 kts 108°
2026-05-04 13:35 45.10192 10.17796 26190 ft 442 kts 108°
2026-05-04 13:35 45.08467 10.26200 26876 ft 446 kts 108°
2026-05-04 13:35 45.07602 10.30421 27248 ft 447 kts 108°
2026-05-04 13:36 45.06706 10.34637 27624 ft 448 kts 109°
2026-05-04 13:36 45.06394 10.36066 27734 ft 449 kts 109°
2026-05-04 13:36 45.04848 10.43107 28268 ft 453 kts 109°
2026-05-04 13:36 45.03927 10.47374 28572 ft 455 kts 108°
2026-05-04 13:37 45.03042 10.51594 29020 ft 455 kts 108°
2026-05-04 13:37 45.02164 10.55872 29592 ft 451 kts 108°
2026-05-04 13:37 45.01303 10.60106 30186 ft 447 kts 108°
2026-05-04 13:37 45.00732 10.62897 30488 ft 445 kts 108°
2026-05-04 13:38 44.99568 10.68520 30886 ft 447 kts 108°
2026-05-04 13:38 44.98687 10.72741 31150 ft 449 kts 108°
2026-05-04 13:38 44.97803 10.76982 31449 ft 450 kts 108°
2026-05-04 13:38 44.96918 10.81221 31739 ft 450 kts 108°
2026-05-04 13:39 44.96047 10.85418 32050 ft 451 kts 108°
2026-05-04 13:39 44.95196 10.89677 32389 ft 450 kts 107°
2026-05-04 13:39 44.94378 10.93939 32722 ft 449 kts 107°
2026-05-04 13:39 44.93577 10.98204 33003 ft 450 kts 106°
2026-05-04 13:40 44.93046 11.01041 33180 ft 450 kts 106°
2026-05-04 13:40 44.90627 11.13899 34055 ft 449 kts 107°
2026-05-04 13:41 44.89816 11.18163 34300 ft 449 kts 107°
2026-05-04 13:41 44.89004 11.22421 34526 ft 449 kts 107°
2026-05-04 13:41 44.88191 11.26683 34730 ft 449 kts 107°
2026-05-04 13:42 44.86575 11.35144 35189 ft 449 kts 107°
2026-05-04 13:42 44.85764 11.39395 35381 ft 449 kts 107°
2026-05-04 13:42 44.84949 11.43656 35563 ft 450 kts 107°
2026-05-04 13:42 44.84122 11.47907 35759 ft 449 kts 107°
2026-05-04 13:43 44.83292 11.52137 36089 ft 446 kts 107°
2026-05-04 13:43 44.82470 11.56341 36333 ft 445 kts 107°
2026-05-04 13:43 44.81653 11.60550 36475 ft 446 kts 107°
2026-05-04 13:43 44.80713 11.64707 36600 ft 446 kts 112°
2026-05-04 13:44 44.79602 11.68782 36771 ft 445 kts 114°
2026-05-04 13:44 44.78449 11.72768 36929 ft 446 kts 114°
2026-05-04 13:44 44.76089 11.80909 37032 ft 452 kts 114°
2026-05-04 13:45 44.73758 11.89199 37056 ft 459 kts 113°
2026-05-04 13:45 44.71451 11.97576 37059 ft 458 kts 113°
2026-05-04 13:46 44.69160 12.05895 37060 ft 454 kts 113°
2026-05-04 13:46 44.66882 12.14121 37063 ft 454 kts 113°
2026-05-04 13:47 44.64566 12.22393 37059 ft 455 kts 113°
2026-05-04 13:47 44.62215 12.30648 37060 ft 456 kts 113°
2026-05-04 13:48 44.59928 12.38691 37064 ft 456 kts 113°
2026-05-04 13:48 44.57676 12.46683 37063 ft 457 kts 113°
2026-05-04 13:49 44.55366 12.54886 37065 ft 455 kts 113°
2026-05-04 13:49 44.53050 12.63049 37063 ft 452 kts 113°
2026-05-04 13:50 44.50718 12.71235 37067 ft 453 kts 113°
2026-05-04 13:50 44.48353 12.79422 37070 ft 454 kts 114°
2026-05-04 13:51 44.45958 12.87626 37061 ft 455 kts 113°
2026-05-04 13:51 44.43563 12.95846 37069 ft 456 kts 113°
2026-05-04 13:52 44.39992 13.08196 37074 ft 457 kts 113°
2026-05-04 13:53 44.37596 13.16441 37077 ft 457 kts 114°
2026-05-04 13:53 44.35216 13.24624 37077 ft 457 kts 114°
2026-05-04 13:54 44.31424 13.36876 37080 ft 458 kts 114°
2026-05-04 13:55 44.27791 13.49200 37083 ft 456 kts 113°
2026-05-04 13:55 44.24256 13.61530 37083 ft 456 kts 113°
2026-05-04 13:56 44.21817 13.69704 37081 ft 456 kts 119°
2026-05-04 13:57 44.16924 13.81068 37082 ft 457 kts 123°
2026-05-04 13:58 44.10387 13.96219 37080 ft 456 kts 122°
2026-05-04 13:58 44.05592 14.07607 37086 ft 457 kts 122°
2026-05-04 13:59 44.02359 14.15236 37082 ft 457 kts 122°
2026-05-04 14:00 43.97471 14.26635 37082 ft 458 kts 122°
2026-05-04 14:00 43.92564 14.37973 37088 ft 456 kts 122°
2026-05-04 14:01 43.89305 14.45523 37085 ft 456 kts 122°
2026-05-04 14:02 43.84429 14.56802 37085 ft 457 kts 122°
2026-05-04 14:02 43.81157 14.64357 37086 ft 458 kts 122°
2026-05-04 14:03 43.77872 14.71913 37093 ft 458 kts 122°
2026-05-04 14:03 43.74555 14.79442 37092 ft 458 kts 123°
2026-05-04 14:04 43.69599 14.90679 37090 ft 457 kts 122°
2026-05-04 14:04 43.66296 14.98172 37089 ft 456 kts 122°
2026-05-04 14:05 43.61368 15.09364 37094 ft 454 kts 122°
2026-05-04 14:06 43.58096 15.16779 37089 ft 457 kts 122°
2026-05-04 14:06 43.54761 15.24266 37100 ft 459 kts 123°
2026-05-04 14:07 43.51403 15.31738 37103 ft 458 kts 122°
2026-05-04 14:07 43.48043 15.39190 37099 ft 457 kts 122°
2026-05-04 14:08 43.44726 15.46628 37097 ft 456 kts 122°
2026-05-04 14:08 43.41393 15.54069 37101 ft 457 kts 122°
2026-05-04 14:09 43.36370 15.65233 37106 ft 458 kts 122°
2026-05-04 14:10 43.31302 15.76376 37096 ft 459 kts 122°
2026-05-04 14:10 43.27913 15.83799 37100 ft 459 kts 122°
2026-05-04 14:11 43.24538 15.91197 37098 ft 460 kts 122°
2026-05-04 14:11 43.19437 16.02364 37108 ft 461 kts 122°
2026-05-04 14:12 43.16023 16.09807 37103 ft 461 kts 121°
2026-05-04 14:13 43.10933 16.20946 37099 ft 461 kts 122°
2026-05-04 14:13 43.07486 16.28331 37099 ft 459 kts 122°
2026-05-04 14:14 43.04058 16.35696 37104 ft 459 kts 122°
2026-05-04 14:14 42.98894 16.46823 37105 ft 464 kts 122°
2026-05-04 14:15 42.91991 16.61682 37100 ft 461 kts 122°
2026-05-04 14:16 42.86790 16.72732 37109 ft 462 kts 122°
2026-05-04 14:17 42.81568 16.83779 37105 ft 465 kts 122°
2026-05-04 14:18 42.76333 16.94886 37103 ft 463 kts 122°
2026-05-04 14:19 42.69355 17.09639 37112 ft 464 kts 122°
2026-05-04 14:19 42.65848 17.16956 37108 ft 465 kts 122°
2026-05-04 14:20 42.62315 17.24342 37109 ft 466 kts 122°
2026-05-04 14:20 42.58777 17.31720 37109 ft 465 kts 122°
2026-05-04 14:21 42.53479 17.42737 37110 ft 463 kts 121°
2026-05-04 14:21 42.49981 17.50013 37115 ft 463 kts 121°
2026-05-04 14:22 42.46465 17.57341 37108 ft 464 kts 121°
2026-05-04 14:22 42.42914 17.64667 37110 ft 466 kts 122°
2026-05-04 14:23 42.37546 17.75642 37131 ft 467 kts 122°
2026-05-04 14:24 42.33968 17.82964 37115 ft 465 kts 121°
2026-05-04 14:24 42.30428 17.90253 37118 ft 463 kts 121°
2026-05-04 14:25 42.27481 17.96290 37117 ft 464 kts 121°
2026-05-04 14:25 42.21551 18.08391 37118 ft 466 kts 122°
2026-05-04 14:26 42.18553 18.14436 37116 ft 466 kts 122°
2026-05-04 14:26 42.14944 18.21710 37113 ft 466 kts 122°
2026-05-04 14:27 42.11337 18.28992 37120 ft 467 kts 122°
2026-05-04 14:27 42.07730 18.36272 37112 ft 467 kts 122°
2026-05-04 14:28 42.04110 18.43570 37127 ft 468 kts 122°
2026-05-04 14:28 42.00511 18.50804 37112 ft 466 kts 122°
2026-05-04 14:29 41.93381 18.65335 37108 ft 465 kts 121°
2026-05-04 14:30 41.89389 18.72141 37107 ft 468 kts 130°
2026-05-04 14:31 41.82995 18.82081 37114 ft 470 kts 128°
2026-05-04 14:32 41.74746 18.95665 37101 ft 469 kts 127°
2026-05-04 14:32 41.70626 19.02451 37099 ft 470 kts 127°
2026-05-04 14:33 41.66507 19.09188 37102 ft 470 kts 127°
2026-05-04 14:33 41.62347 19.15932 37106 ft 470 kts 128°
2026-05-04 14:34 41.58180 19.22652 37101 ft 469 kts 128°
2026-05-04 14:34 41.54017 19.29378 37107 ft 469 kts 127°
2026-05-04 14:35 41.49876 19.36071 37111 ft 470 kts 128°
2026-05-04 14:35 41.45700 19.42806 37112 ft 471 kts 128°
2026-05-04 14:36 41.41516 19.49539 37116 ft 470 kts 127°
2026-05-04 14:36 41.37344 19.56229 37115 ft 468 kts 128°
2026-05-04 14:37 41.33194 19.62827 37119 ft 468 kts 128°
2026-05-04 14:37 41.29012 19.69475 37098 ft 469 kts 128°
2026-05-04 14:38 41.24814 19.76155 37104 ft 471 kts 128°
2026-05-04 14:38 41.20601 19.82847 37122 ft 472 kts 127°
2026-05-04 14:39 41.16437 19.89450 37111 ft 469 kts 128°
2026-05-04 14:39 41.12258 19.96075 37106 ft 467 kts 128°
2026-05-04 14:40 41.05974 20.05938 37107 ft 470 kts 128°
2026-05-04 14:40 41.01745 20.12553 37101 ft 471 kts 128°
2026-05-04 14:41 40.97519 20.19171 37111 ft 468 kts 127°
2026-05-04 14:42 40.89159 20.32267 37107 ft 468 kts 128°
2026-05-04 14:42 40.84953 20.38831 37095 ft 469 kts 128°
2026-05-04 14:43 40.80723 20.45376 37091 ft 468 kts 128°
2026-05-04 14:43 40.76486 20.51896 37094 ft 468 kts 128°
2026-05-04 14:44 40.72263 20.58430 37104 ft 469 kts 127°
2026-05-04 14:44 40.67790 20.64752 37095 ft 473 kts 134°
2026-05-04 14:45 40.63021 20.70744 37088 ft 474 kts 134°
2026-05-04 14:45 40.58325 20.76753 37101 ft 473 kts 133°
2026-05-04 14:46 40.53668 20.82855 37110 ft 472 kts 133°
2026-05-04 14:46 40.49039 20.88945 37101 ft 470 kts 132°
2026-05-04 14:47 40.44397 20.95035 37089 ft 472 kts 133°
2026-05-04 14:47 40.39718 21.01130 37091 ft 475 kts 133°
2026-05-04 14:48 40.35017 21.07192 37097 ft 476 kts 133°
2026-05-04 14:48 40.30306 21.13273 37092 ft 473 kts 133°
2026-05-04 14:49 40.25623 21.19319 37102 ft 472 kts 133°
2026-05-04 14:49 40.20944 21.25363 37097 ft 473 kts 133°
2026-05-04 14:50 40.16249 21.31419 37088 ft 475 kts 133°
2026-05-04 14:50 40.11526 21.37491 37090 ft 476 kts 133°
2026-05-04 14:51 40.06854 21.43452 37086 ft 477 kts 133°
2026-05-04 14:51 40.02098 21.49502 37087 ft 476 kts 133°
2026-05-04 14:52 39.97365 21.55532 37088 ft 475 kts 133°
2026-05-04 14:52 39.92649 21.61540 37087 ft 474 kts 133°
2026-05-04 14:53 39.87942 21.67530 37085 ft 477 kts 134°
2026-05-04 14:53 39.83185 21.73569 37080 ft 478 kts 133°
2026-05-04 14:54 39.78416 21.79585 37104 ft 477 kts 134°
2026-05-04 14:54 39.73639 21.85581 37087 ft 476 kts 134°
2026-05-04 14:55 39.68870 21.91575 37084 ft 477 kts 134°
2026-05-04 14:55 39.64093 21.97580 37085 ft 478 kts 134°
2026-05-04 14:56 39.59280 22.03623 36616 ft 489 kts 134°
2026-05-04 14:56 39.56862 22.06654 36117 ft 488 kts 134°
2026-05-04 14:56 39.54396 22.09739 35607 ft 484 kts 134°
2026-05-04 14:57 39.51985 22.12751 35116 ft 480 kts 134°
2026-05-04 14:57 39.49591 22.15728 34653 ft 476 kts 134°
2026-05-04 14:57 39.47241 22.18642 34189 ft 472 kts 134°
2026-05-04 14:57 39.44877 22.21569 33662 ft 468 kts 134°
2026-05-04 14:58 39.42529 22.24481 33130 ft 465 kts 133°
2026-05-04 14:58 39.40203 22.27365 32603 ft 461 kts 133°
2026-05-04 14:58 39.37898 22.30226 32084 ft 458 kts 133°
2026-05-04 14:58 39.35605 22.33073 31580 ft 455 kts 134°
2026-05-04 14:59 39.33327 22.35898 31081 ft 452 kts 133°
2026-05-04 14:59 39.31059 22.38702 30591 ft 449 kts 133°
2026-05-04 14:59 39.26569 22.44239 29540 ft 444 kts 133°
2026-05-04 15:00 39.24371 22.46949 29035 ft 441 kts 133°
2026-05-04 15:00 39.22161 22.49676 28484 ft 438 kts 133°
2026-05-04 15:00 39.19968 22.52379 28043 ft 432 kts 133°
2026-05-04 15:01 39.15544 22.57835 27530 ft 456 kts 133°
2026-05-04 15:01 39.13205 22.60717 27275 ft 474 kts 134°
2026-05-04 15:01 39.10775 22.63704 27022 ft 491 kts 134°
2026-05-04 15:01 39.08279 22.66767 26763 ft 498 kts 134°
2026-05-04 15:02 39.05760 22.69845 26489 ft 500 kts 134°
2026-05-04 15:02 39.03231 22.72917 26233 ft 498 kts 134°
2026-05-04 15:02 39.00744 22.75937 25983 ft 495 kts 134°
2026-05-04 15:02 38.98250 22.78964 25766 ft 490 kts 135°
2026-05-04 15:03 38.95819 22.81921 25518 ft 474 kts 135°
2026-05-04 15:03 38.93446 22.84828 25267 ft 468 kts 135°
2026-05-04 15:03 38.91088 22.87703 25039 ft 465 kts 135°
2026-05-04 15:03 38.88743 22.90541 24809 ft 463 kts 135°
2026-05-04 15:04 38.86405 22.93371 24568 ft 460 kts 135°
2026-05-04 15:04 38.84104 22.96162 24332 ft 458 kts 135°
2026-05-04 15:04 38.81795 22.98967 24102 ft 455 kts 135°
2026-05-04 15:04 38.79499 23.01754 23868 ft 453 kts 135°
2026-05-04 15:05 38.77208 23.04528 23628 ft 455 kts 135°
2026-05-04 15:05 38.74895 23.07320 23352 ft 456 kts 135°
2026-05-04 15:05 38.72599 23.10090 23071 ft 452 kts 135°
2026-05-04 15:05 38.70319 23.12830 22822 ft 443 kts 135°
2026-05-04 15:06 38.68092 23.15502 22548 ft 436 kts 135°
2026-05-04 15:06 38.65887 23.18160 22282 ft 433 kts 135°
2026-05-04 15:06 38.63697 23.20792 22018 ft 432 kts 135°
2026-05-04 15:07 38.59326 23.26022 21497 ft 429 kts 135°
2026-05-04 15:07 38.57131 23.28597 21142 ft 428 kts 136°
2026-05-04 15:07 38.54968 23.31127 20564 ft 424 kts 136°
2026-05-04 15:07 38.52803 23.33644 19988 ft 417 kts 136°
2026-05-04 15:08 38.50677 23.36121 19429 ft 410 kts 136°
2026-05-04 15:08 38.48578 23.38565 18879 ft 406 kts 136°
2026-05-04 15:08 38.46503 23.40972 18326 ft 399 kts 136°
2026-05-04 15:08 38.44419 23.43298 17713 ft 398 kts 142°
2026-05-04 15:09 38.41885 23.44832 17118 ft 406 kts 161°
2026-05-04 15:09 38.39188 23.45768 16515 ft 404 kts 164°
2026-05-04 15:09 38.36475 23.46640 15922 ft 400 kts 164°
2026-05-04 15:10 38.31078 23.48289 14787 ft 398 kts 165°
2026-05-04 15:10 38.28390 23.49079 14236 ft 394 kts 165°
2026-05-04 15:10 38.23078 23.50647 13044 ft 387 kts 165°
2026-05-04 15:11 38.20512 23.51415 12424 ft 369 kts 165°
2026-05-04 15:11 38.18074 23.52153 11821 ft 351 kts 165°
2026-05-04 15:11 38.15750 23.52862 11240 ft 337 kts 165°
2026-05-04 15:11 38.13515 23.53549 10668 ft 325 kts 165°
2026-05-04 15:12 38.11354 23.54225 10110 ft 315 kts 165°
2026-05-04 15:12 38.09283 23.54884 9528 ft 306 kts 165°
2026-05-04 15:12 38.07244 23.55549 8918 ft 299 kts 166°
2026-05-04 15:12 38.05243 23.56227 8327 ft 294 kts 165°
2026-05-04 15:13 38.03285 23.56911 7742 ft 291 kts 165°
2026-05-04 15:13 38.01381 23.57688 7312 ft 282 kts 156°
2026-05-04 15:13 37.99651 23.58795 7022 ft 279 kts 152°
2026-05-04 15:13 37.97969 23.59982 6528 ft 274 kts 151°
2026-05-04 15:14 37.96328 23.61168 6102 ft 267 kts 150°
2026-05-04 15:14 37.95275 23.61943 5939 ft 262 kts 150°
2026-05-04 15:14 37.93727 23.63087 5607 ft 253 kts 150°
2026-05-04 15:14 37.92224 23.64201 5222 ft 247 kts 150°
2026-05-04 15:15 37.90283 23.65622 4768 ft 238 kts 150°
2026-05-04 15:15 37.88865 23.66637 4505 ft 232 kts 150°
2026-05-04 15:15 37.87941 23.67304 4336 ft 230 kts 150°
2026-05-04 15:16 37.85214 23.69295 3817 ft 222 kts 150°
2026-05-04 15:16 37.83872 23.70263 3573 ft 222 kts 150°
2026-05-04 15:16 37.81191 23.72172 3124 ft 219 kts 150°
2026-05-04 15:17 37.79861 23.73112 3049 ft 219 kts 150°
2026-05-04 15:17 37.78184 23.75958 3016 ft 212 kts 82°
2026-05-04 15:17 37.78416 23.77789 3019 ft 211 kts 76°
2026-05-04 15:18 37.78674 23.79615 2997 ft 211 kts 76°
2026-05-04 15:18 37.78942 23.81445 2978 ft 212 kts 72°
2026-05-04 15:18 37.79650 23.82945 2977 ft 196 kts 32°
2026-05-04 15:19 37.81920 23.84653 2945 ft 175 kts 28°
2026-05-04 15:19 37.82929 23.85451 2695 ft 165 kts 29°
2026-05-04 15:19 37.84630 23.86955 2257 ft 136 kts 33°
2026-05-04 15:20 37.85372 23.87644 2031 ft 131 kts 35°
2026-05-04 15:20 37.86090 23.88347 1859 ft 131 kts 33°
2026-05-04 15:20 37.86802 23.89041 1723 ft 129 kts 32°
2026-05-04 15:20 37.87534 23.89714 1590 ft 132 kts 34°
2026-05-04 15:21 37.88265 23.90419 1429 ft 134 kts 34°
2026-05-04 15:21 37.89008 23.91127 1246 ft 132 kts 35°
2026-05-04 15:21 37.90467 23.92494 823 ft 132 kts 38°
2026-05-04 15:22 37.91207 23.93209 604 ft 137 kts 45°
2026-05-04 15:22 37.91989 23.93955 452 ft 141 kts 41°
2026-05-04 15:22 37.93447 23.95371 289 ft 102 kts 38°
2026-05-04 15:23 37.93810 23.95682 280 ft 37 kts 21°
2026-05-04 15:23 37.94008 23.95724 296 ft 15 kts 344°
2026-05-04 15:23 37.94048 23.95678 296 ft 4 kts 310°
2026-05-04 15:23 37.94060 23.95660 301 ft 2 kts 311°
2026-05-04 15:24 37.94071 23.95645 302 ft 5 kts 312°
2026-05-04 15:24 37.94092 23.95616 302 ft 0 kts 312°
2026-05-04 15:28 37.94093 23.95615 302 ft 1 kts 311°
2026-05-04 15:28 37.94085 23.95553 302 ft 8 kts 224°
2026-05-04 15:29 37.94015 23.95485 304 ft 18 kts 216°
2026-05-04 15:30 37.93447 23.94944 302 ft 28 kts 217°
2026-05-04 15:30 37.92983 23.94504 303 ft 25 kts 217°
2026-05-04 15:31 37.92913 23.94304 304 ft 12 kts 306°
2026-05-04 15:31 37.92959 23.94232 303 ft 8 kts 324°
2026-05-04 15:32 37.93050 23.94282 302 ft 0 kts 37°